Regional Weather Roundup
Issued by NWS Albany, NY

Home | Current Version | Previous Version | Graphics & Text | Print | Product List | Glossary On
Versions: 1 2 3 4 5 6 7 8 9 10 11 12 13 14 15 16 17 18 19 20 21 22 23 24 25 26 27 28 29 30 31 32 33 34 35 36 37 38 39 40 41 42 43 44 45 46 47 48 49 50
052
ASUS41 KALY 260210
RWRALY

NEW YORK STATE HOURLY WEATHER ROUNDUP
NATIONAL WEATHER SERVICE ALBANY NY
900 PM EST SAT FEB 25 2017

NOTE: "FAIR" INDICATES FEW OR NO CLOUDS BELOW 12,000 FEET WITH NO
SIGNIFICANT WEATHER AND/OR NO OBSTRUCTIONS TO VISIBILITY.

NYZ032-033-038>043-046>054-057>066-NYZ062>081-082-084-260300-
EAST


CITY           SKY/WX    TMP DP  RH WIND       PRES   REMARKS
ALBANY         LGT RAIN  38  34  85 W7        29.65S WCI  33
GLENS FALLS    CLOUDY    38  34  85 N3        29.59F
POUGHKEEPSIE   RAIN      43  40  89 NE16      29.57F
NEWBURGH       MOCLDY    45  43  93 NW7       29.59R
MONTGOMERY     MOCLDY    44  39  82 W8        29.59R
WHITE PLAINS   CLOUDY    46  41  82 NW13      29.55F
ISLIP          CLOUDY    48  47  96 NW21G32   29.56R
NEW YORK CITY  LGT RAIN  52  42  69 NW13      29.58S
CENTRAL PARK   LGT RAIN  48  43  82 W8        29.61S
$$

NYZ005>009-017-018-044>046-055-056-260300-
CENTRAL


CITY           SKY/WX    TMP DP  RH WIND       PRES   REMARKS
FULTON         LGT SNOW  34  31  88 W16G28    29.69R FOG     WCI  24
SYRACUSE       CLOUDY    37  37 100 W12       29.68R WCI  29
ROME           LGT RAIN  37  35  92 W10       29.67R WCI  30
ELMIRA         FLURRIES  35  26  69 NW16G26   29.71R WCI  25
BINGHAMTON     CLOUDY    32  27  81 NW12G20   29.65R WCI  23
MONTICELLO     CLOUDY   N/A N/A N/A NW10      29.61R
$$

NYZ026>034-041>043-087-260300-
NORTH


CITY           SKY/WX    TMP DP  RH WIND       PRES   REMARKS
WATERTOWN      CLOUDY    36  30  79 SW16G28   29.63R WCI  26
FORT DRUM      NOT AVBL
OGDENSBURG     CLOUDY    37  36  94 SW8       29.56R WCI  31
MASSENA        MOCLDY    38  36  92 SW10G21   29.55R WCI  31
SARANAC LAKE   LGT SNOW  33  33 100 SW9       29.51F FOG     WCI  25
PLATTSBURGH    LGT RAIN  36  33  89 SE6       29.56R WCI  31
$$

NYZ001>004-010>016-019>021-085-260300-
WEST


CITY           SKY/WX    TMP DP  RH WIND       PRES   REMARKS
NIAGARA FALLS  CLOUDY    33  22  63 W20G25    29.75R WCI  21
BUFFALO        LGT SNOW  30  26  85 W20G28    29.76R FOG     WCI  17
DUNKIRK        CLOUDY    31  23  72 W18G32    29.81R WCI  19
JAMESTOWN      CLOUDY    27  16  63 W17G25    29.76R WCI  14
WELLSVILLE     LGT SNOW  28  22  78 W26G43    29.71R VSB 1   WCI  13
ROCHESTER      FLURRIES  35  23  61 W22G33    29.71R WCI  23
PENN YAN       FLURRIES  34  24  67 W21G26    29.71R WCI  22
$$

             KEY
       WCI = WIND CHILL INDEX
       VSB = VISIBILITY
       HX  = HEAT INDEX
$$




USA.gov is the U.S. government's official web portal to all federal, state and local government web resources and services.